Change the Weather History Date:

Thursday, October 4, 2012

  Actual Average Record
Temperature  
Mean Temperature 60 °F -  
Max Temperature 62 °F 59 °F 78 °F (2005)
Min Temperature 57 °F 31 °F 21 °F (1996)
Degree Days  
Heating Degree Days 6    
Growing Degree Days 10 (Base 50)    
Moisture  
Dew Point 58 °F    
Average Humidity 91    
Maximum Humidity 94    
Minimum Humidity 87    
Precipitation  
Precipitation 0.07 in - - ()
Sea Level Pressure  
Sea Level Pressure 30.12 in    
Wind  
Wind Speed 1 mph (ENE)    
Max Wind Speed 7 mph    
Max Gust Speed -    
Visibility 6 miles    
Events Fog , Rain    
Averages and records for this station are not official NWS values.
T = Trace of Precipitation, MM = Missing Value Source: NWS Daily Summary

Daily Weather History Graph

Daily Weather History Graph

Search for Another Location

Airport or City:

Trip Planner

Search our weather history database for the weather conditions in past years. The results will help you decide how hot, cold, wet, or windy it might be!

Date:

Astronomy

Oct. 04, 2012 Rise Set
Actual Time 6:48 AM EDT 6:20 PM EDT
Civil Twilight 6:19 AM EDT 6:49 PM EDT
Nautical Twilight 5:45 AM EDT 7:23 PM EDT
Astronomical Twilight 5:11 AM EDT 7:56 PM EDT
Moon 8:43 PM EDT (10/4) 11:12 AM EDT (10/4)
Length of Visible Light 12h 30m
Length of Day
11h 32m
Waning Gibbous, 82% of the Moon is Illuminated
Oct 4
Waning Gibbous
Oct 8
Last Quarter
Oct 15
New
Oct 21
First Quarter
Oct 29
Full

Hourly Weather History & Observations

Time (EDT) Temp. Dew Point Humidity Pressure Visibility Wind Dir Wind Speed Gust Speed Precip Events Conditions
12:52 AM 60.1 °F 57.0 °F 90% 30.16 in 10.0 mi Calm Calm - N/A   Overcast
1:06 AM 60.8 °F 57.2 °F 88% 30.16 in 7.0 mi Calm Calm - N/A   Overcast
1:20 AM 60.8 °F 57.2 °F 88% 30.17 in 10.0 mi Calm Calm - N/A   Overcast
1:52 AM 60.1 °F 57.0 °F 90% 30.17 in 3.0 mi Calm Calm - 0.01 in Rain Light Rain
2:00 AM 59.0 °F 57.2 °F 94% 30.16 in 2.5 mi Calm Calm - 0.00 in Rain Light Rain
2:06 AM 59.0 °F 57.2 °F 94% 30.16 in 3.0 mi East 3.5 mph - 0.00 in   Overcast
2:21 AM 60.8 °F 57.2 °F 88% 30.16 in 5.0 mi Calm Calm - 0.00 in   Overcast
2:30 AM 59.0 °F 57.2 °F 94% 30.16 in 9.0 mi Calm Calm - 0.00 in   Overcast
2:52 AM 60.1 °F 57.0 °F 90% 30.16 in 10.0 mi Calm Calm - 0.00 in   Overcast
3:23 AM 60.8 °F 57.2 °F 88% 30.15 in 10.0 mi Calm Calm - N/A   Overcast
3:47 AM 59.0 °F 57.2 °F 94% 30.15 in 8.0 mi Calm Calm - N/A   Overcast
3:52 AM 59.0 °F 57.0 °F 93% 30.15 in 6.0 mi Calm Calm - N/A   Overcast
4:04 AM 59.0 °F 57.2 °F 94% 30.16 in 3.0 mi Calm Calm - N/A   Overcast
4:19 AM 59.0 °F 57.2 °F 94% 30.16 in 3.0 mi Calm Calm - N/A   Overcast
4:52 AM 59.0 °F 57.0 °F 93% 30.16 in 4.0 mi Calm Calm - N/A   Overcast
5:20 AM 59.0 °F 57.2 °F 94% 30.17 in 6.0 mi Calm Calm - N/A   Overcast
5:32 AM 59.0 °F 57.2 °F 94% 30.16 in 4.0 mi Calm Calm - N/A   Overcast
5:37 AM 59.0 °F 57.2 °F 94% 30.16 in 2.5 mi Calm Calm - N/A   Overcast
5:52 AM 59.0 °F 57.0 °F 93% 30.17 in 2.0 mi Calm Calm - 0.01 in   Overcast
6:00 AM 59.0 °F 57.2 °F 94% 30.17 in 1.8 mi Calm Calm - N/A   Overcast
6:15 AM 59.0 °F 57.2 °F 94% 30.17 in 2.5 mi Calm Calm - N/A   Overcast
6:21 AM 59.0 °F 57.2 °F 94% 30.17 in 4.0 mi Calm Calm - N/A   Overcast
6:45 AM 59.0 °F 57.2 °F 94% 30.16 in 5.0 mi Calm Calm - N/A   Overcast
6:52 AM 59.0 °F 57.0 °F 93% 30.16 in 5.0 mi Calm Calm - N/A   Overcast
7:15 AM 59.0 °F 57.2 °F 94% 30.15 in 10.0 mi Calm Calm - N/A   Overcast
7:30 AM 59.0 °F 57.2 °F 94% 30.16 in 7.0 mi Calm Calm - N/A   Overcast
7:52 AM 59.0 °F 57.0 °F 93% 30.17 in 10.0 mi West 3.5 mph - N/A   Overcast
8:28 AM 60.8 °F 57.2 °F 88% 30.16 in 3.0 mi Calm Calm - N/A   Overcast
8:40 AM 60.8 °F 57.2 °F 88% 30.16 in 2.0 mi Calm Calm - N/A   Overcast
8:48 AM 60.8 °F 57.2 °F 88% 30.16 in 1.5 mi NW 3.5 mph - N/A   Overcast
8:52 AM 60.1 °F 57.9 °F 93% 30.17 in 2.0 mi WNW 3.5 mph - N/A   Overcast
9:01 AM 60.8 °F 57.2 °F 88% 30.16 in 4.0 mi Calm Calm - N/A   Overcast
9:14 AM 60.8 °F 57.2 °F 88% 30.16 in 9.0 mi Calm Calm - N/A   Overcast
9:19 AM 60.8 °F 57.2 °F 88% 30.16 in 9.0 mi Calm Calm - N/A   Overcast
9:31 AM 60.8 °F 57.2 °F 88% 30.15 in 2.5 mi Calm Calm - N/A   Overcast
9:52 AM 61.0 °F 57.0 °F 87% 30.15 in 10.0 mi East 5.8 mph - N/A   Overcast
10:03 AM 60.8 °F 57.2 °F 88% 30.15 in 10.0 mi Calm Calm - N/A   Overcast
10:49 AM 60.8 °F 57.2 °F 88% 30.15 in 9.0 mi Calm Calm - N/A   Overcast
10:52 AM 61.0 °F 57.9 °F 90% 30.16 in 7.0 mi Calm Calm - N/A   Overcast
11:05 AM 60.8 °F 57.2 °F 88% 30.15 in 1.8 mi Calm Calm - N/A   Overcast
11:20 AM 60.8 °F 57.2 °F 88% 30.15 in 1.5 mi Calm Calm - N/A   Overcast
11:52 AM 62.1 °F 59.0 °F 90% 30.14 in 1.5 mi ENE 3.5 mph - 0.01 in   Overcast
12:16 PM 60.8 °F 59.0 °F 94% 30.13 in 2.5 mi East 3.5 mph - N/A   Overcast
12:25 PM 62.6 °F 59.0 °F 88% 30.12 in 5.0 mi ENE 3.5 mph - 0.01 in   Overcast
12:52 PM 62.1 °F 59.0 °F 90% 30.13 in 9.0 mi Calm Calm - 0.01 in   Overcast
1:19 PM 62.6 °F 59.0 °F 88% 30.11 in 2.0 mi Calm Calm - N/A   Overcast
1:35 PM 62.6 °F 59.0 °F 88% 30.10 in 3.0 mi Calm Calm - N/A   Overcast
1:52 PM 62.1 °F 59.0 °F 90% 30.11 in 1.8 mi Calm Calm - N/A   Overcast
2:04 PM 62.6 °F 59.0 °F 88% 30.10 in 1.0 mi Calm Calm - 0.01 in Rain Light Rain
2:15 PM 60.8 °F 59.0 °F 94% 30.09 in 1.5 mi East 6.9 mph - 0.01 in Rain Light Rain
2:26 PM 62.6 °F 59.0 °F 88% 30.09 in 2.5 mi East 5.8 mph - 0.02 in Rain Light Rain
2:29 PM 62.6 °F 59.0 °F 88% 30.09 in 3.0 mi East 3.5 mph - 0.02 in Rain Light Rain
2:52 PM 62.1 °F 59.0 °F 90% 30.08 in 10.0 mi NE 3.5 mph - 0.02 in Rain Light Rain
3:11 PM 62.6 °F 59.0 °F 88% 30.07 in 10.0 mi Calm Calm - 0.00 in Rain Light Rain
3:19 PM 62.6 °F 59.0 °F 88% 30.06 in 10.0 mi Calm Calm - 0.00 in   Overcast
3:49 PM 62.6 °F 59.0 °F 88% 30.07 in 10.0 mi Calm Calm - 0.00 in   Overcast
3:52 PM 62.1 °F 59.0 °F 90% 30.08 in 10.0 mi Calm Calm - 0.00 in   Overcast
3:56 PM 62.6 °F 59.0 °F 88% 30.07 in 10.0 mi Calm Calm - N/A   Overcast
4:52 PM 62.1 °F 60.1 °F 93% 30.07 in 9.0 mi Calm Calm - 0.01 in Rain Light Rain
5:52 PM 62.1 °F 59.0 °F 90% 30.05 in 10.0 mi Calm Calm - 0.00 in   Overcast
6:49 PM 60.8 °F 59.0 °F 94% 30.04 in 10.0 mi Calm Calm - N/A   Overcast
6:52 PM 61.0 °F 59.0 °F 93% 30.04 in 10.0 mi Calm Calm - N/A   Overcast
7:15 PM 60.8 °F 57.2 °F 88% 30.03 in 10.0 mi North 4.6 mph - N/A   Overcast
7:31 PM 60.8 °F 57.2 °F 88% 30.04 in 10.0 mi Calm Calm - N/A   Overcast
7:35 PM 60.8 °F 57.2 °F 88% 30.04 in 10.0 mi Calm Calm - N/A   Overcast
7:52 PM 61.0 °F 57.9 °F 90% 30.04 in 10.0 mi Calm Calm - N/A   Overcast
9:21 PM 60.8 °F 59.0 °F 94% 30.04 in 10.0 mi Calm Calm - N/A   Overcast
9:32 PM 60.8 °F 59.0 °F 94% 30.04 in 10.0 mi SW 3.5 mph - N/A   Overcast
9:41 PM 60.8 °F 59.0 °F 94% 30.04 in 10.0 mi Calm Calm - N/A   Overcast
9:48 PM 60.8 °F 59.0 °F 94% 30.04 in 10.0 mi Calm Calm - N/A   Overcast
9:52 PM 61.0 °F 59.0 °F 93% 30.05 in 10.0 mi Calm Calm - N/A   Overcast
10:28 PM 60.8 °F 57.2 °F 88% 30.05 in 9.0 mi Calm Calm - N/A   Overcast
10:36 PM 60.8 °F 57.2 °F 88% 30.05 in 6.0 mi Calm Calm - N/A   Overcast
11:01 PM 59.0 °F 57.2 °F 94% 30.04 in 1.5 mi Calm Calm - N/A   Mostly Cloudy
11:16 PM 59.0 °F 57.2 °F 94% 30.04 in 0.8 mi Calm Calm - N/A   Overcast
11:39 PM 57.2 °F 55.4 °F 94% 30.04 in 0.5 mi Calm Calm - N/A Fog Fog
11:48 PM 57.2 °F 55.4 °F 94% 30.04 in 0.2 mi Calm Calm - N/A Fog Fog
11:52 PM 57.0 °F 55.0 °F 93% 30.04 in 0.2 mi Calm Calm - N/A Fog Fog